{"data":{"norad_id":64597,"epoch":"2026-05-24T22:34:43.895712Z","epoch_age_seconds":73957,"freshness":"FRESH","line1":"1 64597U 25137D   26144.94078583  .00004734  00000+0  17190-3 0  9998","line2":"2 64597  53.1618 341.4562 0001138  99.5731 260.5398 15.30190925 52408","mean_motion":15.30190925,"eccentricity":0.0001138,"inclination_deg":53.1618,"raan_deg":341.4562,"arg_perigee_deg":99.5731,"mean_anomaly_deg":260.5398,"bstar":0.0001719,"rev_number":5240,"period_min":94.105903810663,"perigee_km":474.46225131838,"apogee_km":476.02208041654,"semimajor_km":6853.3791658675,"source":"CELESTRAK","updated_at":"2026-05-25T13:38:20.464240Z"}}